Home > Weather > Saltillo > Past weeks

Flag for Mexico Past Weather in Saltillo, Coahuila de Zaragoza, Mexico — Yesterday and Last 2 Weeks

Now
88 °F

Partly sunny.


Feels Like: 90 °F
Forecast: N/A
Wind: 9 mph from North

Location: Saltillo Airport

Current Time: Jul 1, 2016 at 3:47:27 PM

Latest Report: Jul 1, 2016 at 2:40 PM


Visibility: 10 mi

Pressure: 30.20 "Hg (25.22 "Hg at 1603m altitude)

Humidity: 49%

Dew Point: 66 °F

Location of SaltilloLocation

Past Weather in Saltillo — Graph

°F

Saltillo Temperature Yesterday

Maximum temperature yesterday: 86 °F (at 12:40 PM)
Minimum temperature yesterday: 64 °F (at 6:40 AM)
Average temperature yesterday: 77 °F

High & Low Weather Summary for the Past Weeks

 TemperatureHumidityPressure
High91 °F (Jun 16, 3:40 PM)94% (Jun 26, 6:40 AM)30.37 "Hg (Jun 26, 6:40 AM)
Low63 °F (Jun 21, 6:00 AM)43% (Jun 22, 1:40 PM)30.10 "Hg (Jun 16, 6:40 PM)
Average76 °F61%30.24 "Hg
* Reported Jun 16 3:40 PM — Jul 1 2:40 PM, Saltillo, Weather by CustomWeather, © 2016

Note: Actual official high and low records may vary slightly from our data, if they occured in-between our weather recording intervals... More about our weather records

Advertising

Saltillo Weather History for the Previous 24 Hours

Scroll right to see more
 ConditionsComfort  
Time TempWeatherWind HumidityBarometerVisibility
2:40 PM
Fri, Jul 1
88 °FPartly sunny.9 mph49%30.20 "Hg10 mi
1:40 PM88 °FPartly sunny.7 mph49%30.23 "Hg10 mi
12:40 PM84 °FPassing clouds.No wind43%30.27 "Hg10 mi
11:40 AM84 °FPassing clouds.No wind43%30.27 "Hg10 mi
10:40 AM81 °FSunny.No wind51%30.27 "Hg10 mi
9:40 AM79 °FSunny.6 mph51%30.27 "Hg10 mi
8:40 AM73 °FSunny.No wind61%30.25 "Hg10 mi
7:40 AM68 °FClear.7 mph73%30.25 "Hg10 mi
6:40 AM68 °FClear.No wind73%30.22 "Hg10 mi
1:40 AM70 °FClear.No wind64%30.22 "Hg10 mi
12:40 AM70 °FClear.No wind64%30.22 "Hg10 mi
11:40 PM
Thu, Jun 30
73 °FClear.No wind57%30.20 "Hg10 mi
9:40 PM75 °FPassing clouds.12 mph54%30.18 "Hg10 mi
8:40 PM77 °FScattered clouds.17 mph57%30.16 "Hg10 mi
7:40 PM79 °FScattered clouds.21 mph54%30.14 "Hg10 mi
3:40 PM86 °FScattered clouds.7 mph52%30.17 "Hg10 mi
Weather by CustomWeather, © 2016

See weather overviewHow to use our weather pages